Hourly Data Report for October 14, 2012

All times are specified in Local Standard Time (LST). Add 1 hour to adjust for Daylight Saving Time where and when it is observed.

ST LEONARD CS
NEW BRUNSWICK

47°09'28.050" N
67°49'55.014" W
245.00 m
810I001
71019
WIY

Download Data

Hourly Data (October 2012)
Hourly Data Report for October 14, 2012
Temp Definition
°C
Dew Point Temp Definition
°C
Rel Hum Definition
%
Wind Dir Definition
10's deg

Wind Spd Definition
km/h
Visibility Definition
km
Stn Press Definition
kPa
Hmdx Definition


Wind Chill Definition


Weather Definition


TIME
00:00 -0.6 -5.2 71 19 4   99.33   -2 LegendNANA
01:00 -1.2 -4.4 79 16 4   99.32   -3 LegendNANA
02:00 -0.2 -4.4 73 20 6   99.30   -2 LegendNANA
03:00 0.3 -4.1 72 19 6   99.27     LegendNANA
04:00 0.2 -3.9 74 15 4   99.24     LegendNANA
05:00 0.2 -3.5 76 16 4   99.21     LegendNANA
06:00 1.0 -2.3 79 21 7   99.20     LegendNANA
07:00 0.8 -1.7 83 17 6   99.14     LegendNANA
08:00 1.0 -1.3 85 14 4   99.17     LegendNANA
09:00 0.7 -0.6 91 13 7   99.11     LegendNANA
10:00 1.0 0.3 95 14 6   99.09     LegendNANA
11:00 1.6 0.8 94 15 11   99.04     LegendNANA
12:00 2.1 1.0 92 17 9   99.03     LegendNANA
13:00 2.7 1.2 90 18 7   98.92     LegendNANA
14:00 2.9 1.3 89 18 7   98.88     LegendNANA
15:00 3.3 1.3 87 19 6   98.83     LegendNANA
16:00 3.4 1.2 85   0   98.76     LegendNANA
17:00 3.5 1.3 85   0   98.72     LegendNANA
18:00 3.2 1.4 88   0   98.73     LegendNANA
19:00 3.1 1.6 90 10 2   98.74     LegendNANA
20:00 2.9 1.7 92 8 4   98.70     LegendNANA
21:00 2.7 1.5 92 8 4   98.68     LegendNANA
22:00 2.5 1.7 94 6 2   98.66     LegendNANA
23:00 2.4 1.8 96 6 4   98.62     LegendNANA

Notes on Data Quality.

Legend

  • E = Estimated
  • M = Missing
  • NA = Not Available
  • ‡ = Partner data that is not subject to review by the National Climate Archives
Date modified: